Find Starlink 35521

NORAD ID: 65916 Int'l Des: 2025-225 Owner: SPXS Country: US Constellation: starlink operational
LEOCIRCULAR

現在のビュー

3D地球を読み込み中...

About Starlink 35521

Starlink 35521 (NORAD 65916) is a starlink constellation satellite (v2 mini) launched Oct 8, 2025 by SPXS of US. It operates in LEO, CIRCULAR orbit with a mass of 575.00 kg.

Starlink 35521について

説明を読み込み中...

次回通過

Passes for default location (London). Set your location on the main map for personalized predictions.

高度履歴

Loading altitude history...

軌道要素

1 65916U 25225G 26195.56021951 -.00015024 00000-0 -43531-3 0 9998
2 65916 53.1597 295.5979 0000846 98.6616 261.4482 15.34336462 43842
Epoch: Jul 14, 2026 • Age: 2 hours

現在のステータス

高度 468.9 km
遠地点 / 近地点 N/A
速度 7.64 km/s
衛星直下点 53.29°N, 135.92°W
打ち上げ日 Oct 8, 2025
運用期間 0.7 years
タイプ internet

技術仕様

分類 Payload
質量 575.00 kg
乾燥質量 530.00 kg
総質量 575.00 kg
長さ 0.30 m
直径 4.10 m
スパン 29.00 m
形状 Box + pan
製造者 SPXS
バスタイプ Starlink V2MO
フェーズステータス In Orbit
所有者/国 SPXS/US

Most Searched